DELTA 1 DEB

Satellite information

Favourite Embed

Satellite Type and Status

DEBRISIN ORBIT

Key statistics

Satellite DELTA 1 DEB at a glance.

Uptime

17685

Days in orbit

Revolutions

≈ 14.5

Per day

Orbit

LEO

Low Earth Orbit

Inclination

28.9

Latest

Satellite identification and parameters

Extended collection of information and parameters for DELTA 1 DEB.

Object identification

Identified? True

Debris? True

Object name: DELTA 1 DEB

International designator: 1977-065AM

Object number (NORAD): 10208

Object ID (CCSDS): 10208

Country: UNITED STATES OF AMERICA (US)

Current information (Y/N): Y

RCS size: SMALL

Orbital parameters

Period: 99.319 minutes

Inclination: 28.9361 deg

SMA: 7104.209 km

Apoapsis: 960.442 km

Periapsis: 491.706 km

RAAN: 75.3417 deg

Eccentricy: 0.03299002

Argument of periapsis: 307.867 deg

Mean anomaly: 49.25 deg

Mean motion: 14.49870246 rev/day

Mean motion (dot): 0.00013223 rev/day2

B* drag term: 0.0016311849 1/REarth

Two-line elements (TLE)

Creation date: Dec. 14, 2025, 3:07 a.m.

Reference frame: TEME

Reference center: EARTH

Epoch: Dec. 13, 2025, 1:34 p.m. UTC

TLE line 0: 0 DELTA 1 DEB

TLE line 1: 1 10208U 77065AM 25347.56551750 .00013223 00000-0 16312-2 0 9997

TLE line 2: 2 10208 28.9361 75.3417 0329900 307.8670 49.2500 14.49870246418685

Live tracking on map

Real-time ground track for satellite DELTA 1 DEB.

In-orbit conjunctions

A list of the most updated potential collisions computed for object DELTA 1 DEB.

Target Orbit TCA Probability of collision Miss distance Type
SCOUT A DEB SSO 2025-12-12 11:27:46 0.0001556328 303.0 (m) DEBRIS

Associated space launch

Japanese meteorological satellite built by Hughes Space and Communications Company

DELTA 1 DEB was lifted into orbit during the mission ‘Delta 2914 | Himawari’, on board a Delta 2914 space rocket.

The launch took place on July 14, 1977, 10:39 a.m. from Space Launch Complex 17B.

For more information about the launch, click the button.

Launch to space Delta 2914 | Himawari
Delta 2914 | Himawari

Agency: N/A

Status: Launch Successful

Launch date: July 14, 1977, 10:39 a.m. UTC

Rocket: Delta 2914

Launch pad: Space Launch Complex 17B

Location: Cape Canaveral SFS, FL, USA

...

Latest news about this satellite

There are no fresh news available about this satellite. Check back as we update our databases every day.


Newsletter sign-up

Weekly statistics, charts and insights to help you stay on top of the space industry.